Year,Month,Day,Hour,Minute,Value (Times are PST for temperature in C)
2010,07,14,00,00,14.20
2010,07,14,00,01,14.20
2010,07,14,00,02,14.20
2010,07,14,00,03,14.20
2010,07,14,00,04,14.20
2010,07,14,00,05,14.20
2010,07,14,00,06,14.20
2010,07,14,00,07,14.20
2010,07,14,00,08,14.20
2010,07,14,00,09,14.20
2010,07,14,00,10,14.20
2010,07,14,00,11,14.20
2010,07,14,00,12,14.20
2010,07,14,00,13,14.20
2010,07,14,00,14,14.20
2010,07,14,00,15,14.20
2010,07,14,00,16,14.20
2010,07,14,00,17,14.20
2010,07,14,00,18,14.20
2010,07,14,00,19,14.10
2010,07,14,00,20,14.10
2010,07,14,00,21,14.10
2010,07,14,00,22,14.10
2010,07,14,00,23,14.10
2010,07,14,00,24,14.00
2010,07,14,00,25,14.00
2010,07,14,00,26,14.00
2010,07,14,00,27,14.00
2010,07,14,00,28,14.00
2010,07,14,00,29,13.90
2010,07,14,00,30,13.90
2010,07,14,00,31,13.90
2010,07,14,00,32,13.90
2010,07,14,00,33,13.90
2010,07,14,00,34,13.90
2010,07,14,00,35,13.90
2010,07,14,00,36,13.90
2010,07,14,00,37,13.90
2010,07,14,00,38,14.00
2010,07,14,00,39,13.90
2010,07,14,00,40,13.90
2010,07,14,00,41,13.90
2010,07,14,00,42,13.90
2010,07,14,00,43,13.90
2010,07,14,00,44,13.80
2010,07,14,00,45,13.80
2010,07,14,00,46,13.80
2010,07,14,00,47,13.80
2010,07,14,00,48,13.70
2010,07,14,00,49,13.70
2010,07,14,00,50,13.70
2010,07,14,00,51,13.70
2010,07,14,00,52,13.70
2010,07,14,00,53,13.60
2010,07,14,00,54,13.60
2010,07,14,00,55,13.50
2010,07,14,00,56,13.50
2010,07,14,00,57,13.40
2010,07,14,00,58,13.40
2010,07,14,00,59,13.40
2010,07,14,01,00,13.30
2010,07,14,01,01,13.30
2010,07,14,01,02,13.20
2010,07,14,01,03,13.20
2010,07,14,01,04,13.10
2010,07,14,01,05,13.10
2010,07,14,01,06,13.00
2010,07,14,01,07,13.00
2010,07,14,01,08,12.90
2010,07,14,01,09,12.90
2010,07,14,01,10,12.90
2010,07,14,01,11,12.90
2010,07,14,01,12,12.80
2010,07,14,01,13,12.80
2010,07,14,01,14,12.80
2010,07,14,01,15,12.80
2010,07,14,01,16,12.80
2010,07,14,01,17,12.70
2010,07,14,01,18,12.70
2010,07,14,01,19,12.70
2010,07,14,01,20,12.70
2010,07,14,01,21,12.60
2010,07,14,01,22,12.60
2010,07,14,01,23,12.60
2010,07,14,01,24,12.50
2010,07,14,01,25,12.50
2010,07,14,01,26,12.40
2010,07,14,01,27,12.40
2010,07,14,01,28,12.40
2010,07,14,01,29,12.30
2010,07,14,01,30,12.30
2010,07,14,01,31,12.20
2010,07,14,01,32,12.20
2010,07,14,01,33,12.20
2010,07,14,01,34,12.10
2010,07,14,01,35,12.10
2010,07,14,01,36,12.10
2010,07,14,01,37,12.10
2010,07,14,01,38,12.00
2010,07,14,01,39,12.00
2010,07,14,01,40,12.00
2010,07,14,01,41,12.00
2010,07,14,01,42,11.90
2010,07,14,01,43,11.90
2010,07,14,01,44,11.90
2010,07,14,01,45,11.90
2010,07,14,01,46,11.90
2010,07,14,01,47,11.90
2010,07,14,01,48,11.80
2010,07,14,01,49,11.80
2010,07,14,01,50,11.80
2010,07,14,01,51,11.80
2010,07,14,01,52,11.80
2010,07,14,01,53,11.80
2010,07,14,01,54,11.80
2010,07,14,01,55,11.80
2010,07,14,01,56,11.80
2010,07,14,01,57,11.80
2010,07,14,01,58,11.80
2010,07,14,01,59,11.80
2010,07,14,02,00,11.80
2010,07,14,02,01,11.80
2010,07,14,02,02,11.80
2010,07,14,02,03,11.90
2010,07,14,02,04,11.90
2010,07,14,02,05,11.90
2010,07,14,02,06,11.90
2010,07,14,02,07,11.90
2010,07,14,02,08,12.00
2010,07,14,02,09,12.00
2010,07,14,02,10,12.00
2010,07,14,02,11,12.10
2010,07,14,02,12,12.10
2010,07,14,02,13,12.10
2010,07,14,02,14,12.10
2010,07,14,02,15,12.10
2010,07,14,02,16,12.10
2010,07,14,02,17,12.10
2010,07,14,02,18,12.10
2010,07,14,02,19,12.10
2010,07,14,02,20,12.10
2010,07,14,02,21,12.10
2010,07,14,02,22,12.10
2010,07,14,02,23,12.00
2010,07,14,02,24,12.00
2010,07,14,02,25,12.00
2010,07,14,02,26,11.90
2010,07,14,02,27,11.90
2010,07,14,02,28,11.90
2010,07,14,02,29,11.90
2010,07,14,02,30,11.90
2010,07,14,02,31,11.90
2010,07,14,02,32,11.90
2010,07,14,02,33,11.80
2010,07,14,02,34,11.80
2010,07,14,02,35,11.80
2010,07,14,02,36,11.80
2010,07,14,02,37,11.80
2010,07,14,02,38,11.80
2010,07,14,02,39,11.70
2010,07,14,02,40,11.70
2010,07,14,02,41,11.70
2010,07,14,02,42,11.70
2010,07,14,02,43,11.70
2010,07,14,02,44,11.70
2010,07,14,02,45,11.60
2010,07,14,02,46,11.60
2010,07,14,02,47,11.60
2010,07,14,02,48,11.60
2010,07,14,02,49,11.60
2010,07,14,02,50,11.50
2010,07,14,02,51,11.50
2010,07,14,02,52,11.50
2010,07,14,02,53,11.40
2010,07,14,02,54,11.40
2010,07,14,02,55,11.40
2010,07,14,02,56,11.40
2010,07,14,02,57,11.40
2010,07,14,02,58,11.30
2010,07,14,02,59,11.30
2010,07,14,03,00,11.30
2010,07,14,03,01,11.20
2010,07,14,03,02,11.20
2010,07,14,03,03,11.20
2010,07,14,03,04,11.10
2010,07,14,03,05,11.10
2010,07,14,03,06,11.10
2010,07,14,03,07,11.00
2010,07,14,03,08,11.00
2010,07,14,03,09,11.00
2010,07,14,03,10,10.90
2010,07,14,03,11,10.90
2010,07,14,03,12,10.90
2010,07,14,03,13,10.90
2010,07,14,03,14,10.90
2010,07,14,03,15,10.90
2010,07,14,03,16,10.90
2010,07,14,03,17,10.90
2010,07,14,03,18,10.90
2010,07,14,03,19,10.90
2010,07,14,03,20,10.90
2010,07,14,03,21,10.90
2010,07,14,03,22,10.80
2010,07,14,03,23,10.80
2010,07,14,03,24,10.80
2010,07,14,03,25,10.80
2010,07,14,03,26,10.80
2010,07,14,03,27,10.80
2010,07,14,03,28,10.80
2010,07,14,03,29,10.80
2010,07,14,03,30,10.80
2010,07,14,03,31,10.80
2010,07,14,03,32,10.70
2010,07,14,03,33,10.70
2010,07,14,03,34,10.70
2010,07,14,03,35,10.70
2010,07,14,03,36,10.60
2010,07,14,03,37,10.60
2010,07,14,03,38,10.60
2010,07,14,03,39,10.60
2010,07,14,03,40,10.50
2010,07,14,03,41,10.50
2010,07,14,03,42,10.50
2010,07,14,03,43,10.40
2010,07,14,03,44,10.40
2010,07,14,03,45,10.40
2010,07,14,03,46,10.40
2010,07,14,03,47,10.40
2010,07,14,03,48,10.40
2010,07,14,03,49,10.40
2010,07,14,03,50,10.40
2010,07,14,03,51,10.40
2010,07,14,03,52,10.30
2010,07,14,03,53,10.40
2010,07,14,03,54,10.30
2010,07,14,03,55,10.30
2010,07,14,03,56,10.30
2010,07,14,03,57,10.30
2010,07,14,03,58,10.30
2010,07,14,03,59,10.30
2010,07,14,04,00,10.30
2010,07,14,04,01,10.30
2010,07,14,04,02,10.30
2010,07,14,04,03,10.40
2010,07,14,04,04,10.50
2010,07,14,04,05,10.60
2010,07,14,04,06,10.60
2010,07,14,04,07,10.70
2010,07,14,04,08,10.70
2010,07,14,04,09,10.80
2010,07,14,04,10,10.80
2010,07,14,04,11,10.80
2010,07,14,04,12,10.80
2010,07,14,04,13,10.80
2010,07,14,04,14,10.80
2010,07,14,04,15,10.80
2010,07,14,04,16,10.80
2010,07,14,04,17,10.80
2010,07,14,04,18,10.80
2010,07,14,04,19,10.80
2010,07,14,04,20,10.80
2010,07,14,04,21,10.80
2010,07,14,04,22,10.80
2010,07,14,04,23,10.70
2010,07,14,04,24,10.70
2010,07,14,04,25,10.70
2010,07,14,04,26,10.70
2010,07,14,04,27,10.60
2010,07,14,04,28,10.50
2010,07,14,04,29,10.50
2010,07,14,04,30,10.40
2010,07,14,04,31,10.40
2010,07,14,04,32,10.30
2010,07,14,04,33,10.30
2010,07,14,04,34,10.30
2010,07,14,04,35,10.30
2010,07,14,04,36,10.30
2010,07,14,04,37,10.30
2010,07,14,04,38,10.30
2010,07,14,04,39,10.30
2010,07,14,04,40,10.30
2010,07,14,04,41,10.30
2010,07,14,04,42,10.30
2010,07,14,04,43,10.30
2010,07,14,04,44,10.30
2010,07,14,04,45,10.40
2010,07,14,04,46,10.40
2010,07,14,04,47,10.40
2010,07,14,04,48,10.40
2010,07,14,04,49,10.50
2010,07,14,04,50,10.50
2010,07,14,04,51,10.50
2010,07,14,04,52,10.50
2010,07,14,04,53,10.60
2010,07,14,04,54,10.60
2010,07,14,04,55,10.60
2010,07,14,04,56,10.60
2010,07,14,04,57,10.60
2010,07,14,04,58,10.60
2010,07,14,04,59,10.60
2010,07,14,05,00,10.60
2010,07,14,05,01,10.60
2010,07,14,05,02,10.60
2010,07,14,05,03,10.60
2010,07,14,05,04,10.60
2010,07,14,05,05,10.60
2010,07,14,05,06,10.60
2010,07,14,05,07,10.60
2010,07,14,05,08,10.60
2010,07,14,05,09,10.60
2010,07,14,05,10,10.60
2010,07,14,05,11,10.60
2010,07,14,05,12,10.70
2010,07,14,05,13,10.70
2010,07,14,05,14,10.70
2010,07,14,05,15,10.70
2010,07,14,05,16,10.70
2010,07,14,05,17,10.70
2010,07,14,05,18,10.70
2010,07,14,05,19,10.70
2010,07,14,05,20,10.70
2010,07,14,05,21,10.70
2010,07,14,05,22,10.70
2010,07,14,05,23,10.80
2010,07,14,05,24,10.80
2010,07,14,05,25,10.80
2010,07,14,05,26,10.80
2010,07,14,05,27,10.70
2010,07,14,05,28,10.70
2010,07,14,05,29,10.70
2010,07,14,05,30,10.70
2010,07,14,05,31,10.70
2010,07,14,05,32,10.60
2010,07,14,05,33,10.60
2010,07,14,05,34,10.60
2010,07,14,05,35,10.60
2010,07,14,05,36,10.60
2010,07,14,05,37,10.50
2010,07,14,05,38,10.50
2010,07,14,05,39,10.50
2010,07,14,05,40,10.40
2010,07,14,05,41,10.40
2010,07,14,05,42,10.30
2010,07,14,05,43,10.30
2010,07,14,05,44,10.30
2010,07,14,05,45,10.20
2010,07,14,05,46,10.20
2010,07,14,05,47,10.10
2010,07,14,05,48,10.10
2010,07,14,05,49,10.00
2010,07,14,05,50,10.00
2010,07,14,05,51,10.00
2010,07,14,05,52,9.90
2010,07,14,05,53,9.90
2010,07,14,05,54,9.90
2010,07,14,05,55,9.90
2010,07,14,05,56,9.90
2010,07,14,05,57,9.90
2010,07,14,05,58,9.90
2010,07,14,05,59,9.90
2010,07,14,06,00,9.90
2010,07,14,06,01,9.90
2010,07,14,06,02,9.90
2010,07,14,06,03,9.90
2010,07,14,06,04,9.90
2010,07,14,06,05,9.90
2010,07,14,06,06,9.90
2010,07,14,06,07,9.90
2010,07,14,06,08,9.90
2010,07,14,06,09,9.90
2010,07,14,06,10,9.90
2010,07,14,06,11,9.90
2010,07,14,06,12,9.80
2010,07,14,06,13,9.80
2010,07,14,06,14,9.80
2010,07,14,06,15,9.80
2010,07,14,06,16,9.80
2010,07,14,06,17,9.80
2010,07,14,06,18,9.80
2010,07,14,06,19,9.80
2010,07,14,06,20,9.80
2010,07,14,06,21,9.80
2010,07,14,06,22,9.80
2010,07,14,06,23,9.80
2010,07,14,06,24,9.80
2010,07,14,06,25,9.80
2010,07,14,06,26,9.80
2010,07,14,06,27,9.90
2010,07,14,06,28,9.90
2010,07,14,06,29,9.90
2010,07,14,06,30,10.00
2010,07,14,06,31,10.00
2010,07,14,06,32,10.00
2010,07,14,06,33,10.10
2010,07,14,06,34,10.10
2010,07,14,06,35,10.10
2010,07,14,06,36,10.10
2010,07,14,06,37,10.10
2010,07,14,06,38,10.10
2010,07,14,06,39,10.10
2010,07,14,06,40,10.10
2010,07,14,06,41,10.10
2010,07,14,06,42,10.10
2010,07,14,06,43,10.10
2010,07,14,06,44,10.10
2010,07,14,06,45,10.10
2010,07,14,06,46,10.20
2010,07,14,06,47,10.20
2010,07,14,06,48,10.20
2010,07,14,06,49,10.30
2010,07,14,06,50,10.30
2010,07,14,06,51,10.30
2010,07,14,06,52,10.40
2010,07,14,06,53,10.50
2010,07,14,06,54,10.60
2010,07,14,06,55,10.60
2010,07,14,06,56,10.70
2010,07,14,06,57,10.70
2010,07,14,06,58,10.80
2010,07,14,06,59,10.80
2010,07,14,07,00,10.80
2010,07,14,07,01,10.90
2010,07,14,07,02,10.90
2010,07,14,07,03,10.90
2010,07,14,07,04,11.00
2010,07,14,07,05,11.00
2010,07,14,07,06,11.00
2010,07,14,07,07,11.10
2010,07,14,07,08,11.10
2010,07,14,07,09,11.10
2010,07,14,07,10,11.10
2010,07,14,07,11,11.20
2010,07,14,07,12,11.20
2010,07,14,07,13,11.20
2010,07,14,07,14,11.20
2010,07,14,07,15,11.20
2010,07,14,07,16,11.20
2010,07,14,07,17,11.30
2010,07,14,07,18,11.30
2010,07,14,07,19,11.40
2010,07,14,07,20,11.40
2010,07,14,07,21,11.50
2010,07,14,07,22,11.50
2010,07,14,07,23,11.60
2010,07,14,07,24,11.60
2010,07,14,07,25,11.70
2010,07,14,07,26,11.80
2010,07,14,07,27,11.90
2010,07,14,07,28,12.00
2010,07,14,07,29,12.10
2010,07,14,07,30,12.30
2010,07,14,07,31,12.40
2010,07,14,07,32,12.40
2010,07,14,07,33,12.50
2010,07,14,07,34,12.60
2010,07,14,07,35,12.70
2010,07,14,07,36,12.80
2010,07,14,07,37,12.90
2010,07,14,07,38,12.90
2010,07,14,07,39,13.00
2010,07,14,07,40,13.00
2010,07,14,07,41,13.10
2010,07,14,07,42,13.10
2010,07,14,07,43,13.20
2010,07,14,07,44,13.20
2010,07,14,07,45,13.30
2010,07,14,07,46,13.30
2010,07,14,07,47,13.40
2010,07,14,07,48,13.40
2010,07,14,07,49,13.50
2010,07,14,07,50,13.60
2010,07,14,07,51,13.60
2010,07,14,07,52,13.70
2010,07,14,07,53,13.70
2010,07,14,07,54,13.80
2010,07,14,07,55,13.80
2010,07,14,07,56,13.90
2010,07,14,07,57,14.00
2010,07,14,07,58,14.10
2010,07,14,07,59,14.20
2010,07,14,08,00,14.20
2010,07,14,08,01,14.30
2010,07,14,08,02,14.30
2010,07,14,08,03,14.40
2010,07,14,08,04,14.50
2010,07,14,08,05,14.50
2010,07,14,08,06,14.60
2010,07,14,08,07,14.70
2010,07,14,08,08,14.80
2010,07,14,08,09,14.90
2010,07,14,08,10,15.00
2010,07,14,08,11,15.00
2010,07,14,08,12,15.00
2010,07,14,08,13,15.10
2010,07,14,08,14,15.30
2010,07,14,08,15,15.40
2010,07,14,08,16,15.50
2010,07,14,08,17,15.60
2010,07,14,08,18,15.70
2010,07,14,08,19,15.80
2010,07,14,08,20,15.90
2010,07,14,08,21,15.90
2010,07,14,08,22,16.00
2010,07,14,08,23,16.10
2010,07,14,08,24,16.30
2010,07,14,08,25,16.40
2010,07,14,08,26,16.60
2010,07,14,08,27,16.80
2010,07,14,08,28,17.00
2010,07,14,08,29,17.10
2010,07,14,08,30,17.10
2010,07,14,08,31,17.20
2010,07,14,08,32,17.20
2010,07,14,08,33,17.20
2010,07,14,08,34,17.20
2010,07,14,08,35,17.30
2010,07,14,08,36,17.30
2010,07,14,08,37,17.30
2010,07,14,08,38,17.30
2010,07,14,08,39,17.40
2010,07,14,08,40,17.50
2010,07,14,08,41,17.50
2010,07,14,08,42,17.60
2010,07,14,08,43,17.60
2010,07,14,08,44,17.70
2010,07,14,08,45,17.70
2010,07,14,08,46,17.70
2010,07,14,08,47,17.70
2010,07,14,08,48,17.60
2010,07,14,08,49,17.60
2010,07,14,08,50,17.60
2010,07,14,08,51,17.70
2010,07,14,08,52,17.70
2010,07,14,08,53,17.80
2010,07,14,08,54,17.80
2010,07,14,08,55,17.80
2010,07,14,08,56,17.70
2010,07,14,08,57,17.60
2010,07,14,08,58,17.50
2010,07,14,08,59,17.40
2010,07,14,09,00,17.30
2010,07,14,09,01,17.30
2010,07,14,09,02,17.30
2010,07,14,09,03,17.40
2010,07,14,09,04,17.50
2010,07,14,09,05,17.60
2010,07,14,09,06,17.70
2010,07,14,09,07,17.80
2010,07,14,09,08,17.90
2010,07,14,09,09,18.00
2010,07,14,09,10,18.10
2010,07,14,09,11,18.20
2010,07,14,09,12,18.20
2010,07,14,09,13,18.20
2010,07,14,09,14,18.20
2010,07,14,09,15,18.10
2010,07,14,09,16,18.00
2010,07,14,09,17,17.90
2010,07,14,09,18,17.90
2010,07,14,09,19,17.90
2010,07,14,09,20,17.90
2010,07,14,09,21,17.90
2010,07,14,09,22,17.90
2010,07,14,09,23,17.90
2010,07,14,09,24,18.00
2010,07,14,09,25,18.10
2010,07,14,09,26,18.20
2010,07,14,09,27,18.20
2010,07,14,09,28,18.20
2010,07,14,09,29,18.30
2010,07,14,09,30,18.30
2010,07,14,09,31,18.20
2010,07,14,09,32,18.10
2010,07,14,09,33,18.10
2010,07,14,09,34,18.10
2010,07,14,09,35,18.10
2010,07,14,09,36,18.20
2010,07,14,09,37,18.20
2010,07,14,09,38,18.20
2010,07,14,09,39,18.20
2010,07,14,09,40,18.20
2010,07,14,09,41,18.20
2010,07,14,09,42,18.30
2010,07,14,09,43,18.40
2010,07,14,09,44,18.40
2010,07,14,09,45,18.50
2010,07,14,09,46,18.60
2010,07,14,09,47,18.70
2010,07,14,09,48,18.70
2010,07,14,09,49,18.70
2010,07,14,09,50,18.60
2010,07,14,09,51,18.60
2010,07,14,09,52,18.60
2010,07,14,09,53,18.60
2010,07,14,09,54,18.50
2010,07,14,09,55,18.40
2010,07,14,09,56,18.30
2010,07,14,09,57,18.20
2010,07,14,09,58,18.20
2010,07,14,09,59,18.30
2010,07,14,10,00,18.30
2010,07,14,10,01,18.30
2010,07,14,10,02,18.20
2010,07,14,10,03,18.20
2010,07,14,10,04,18.20
2010,07,14,10,05,18.10
2010,07,14,10,06,18.10
2010,07,14,10,07,18.10
2010,07,14,10,08,18.20
2010,07,14,10,09,18.20
2010,07,14,10,10,18.20
2010,07,14,10,11,18.30
2010,07,14,10,12,18.30
2010,07,14,10,13,18.40
2010,07,14,10,14,18.40
2010,07,14,10,15,18.40
2010,07,14,10,16,18.40
2010,07,14,10,17,18.40
2010,07,14,10,18,18.40
2010,07,14,10,19,18.40
2010,07,14,10,20,18.40
2010,07,14,10,21,18.50
2010,07,14,10,22,18.50
2010,07,14,10,23,18.50
2010,07,14,10,24,18.60
2010,07,14,10,25,18.70
2010,07,14,10,26,18.70
2010,07,14,10,27,18.70
2010,07,14,10,28,18.60
2010,07,14,10,29,18.50
2010,07,14,10,30,18.40
2010,07,14,10,31,18.30
2010,07,14,10,32,18.30
2010,07,14,10,33,18.30
2010,07,14,10,34,18.40
2010,07,14,10,35,18.50
2010,07,14,10,36,18.50
2010,07,14,10,37,18.60
2010,07,14,10,38,18.70
2010,07,14,10,39,18.70
2010,07,14,10,40,18.70
2010,07,14,10,41,18.80
2010,07,14,10,42,18.80
2010,07,14,10,43,18.80
2010,07,14,10,44,18.80
2010,07,14,10,45,18.80
2010,07,14,10,46,18.90
2010,07,14,10,47,18.90
2010,07,14,10,48,18.90
2010,07,14,10,49,18.90
2010,07,14,10,50,18.90
2010,07,14,10,51,18.80
2010,07,14,10,52,18.80
2010,07,14,10,53,18.90
2010,07,14,10,54,18.90
2010,07,14,10,55,19.00
2010,07,14,10,56,19.10
2010,07,14,10,57,19.10
2010,07,14,10,58,19.10
2010,07,14,10,59,19.10
2010,07,14,11,00,19.10
2010,07,14,11,01,19.10
2010,07,14,11,02,19.10
2010,07,14,11,03,19.10
2010,07,14,11,04,19.10
2010,07,14,11,05,19.20
2010,07,14,11,06,19.20
2010,07,14,11,07,19.30
2010,07,14,11,08,19.30
2010,07,14,11,09,19.30
2010,07,14,11,10,19.40
2010,07,14,11,11,19.40
2010,07,14,11,12,19.50
2010,07,14,11,13,19.60
2010,07,14,11,14,19.70
2010,07,14,11,15,19.80
2010,07,14,11,16,19.90
2010,07,14,11,17,19.90
2010,07,14,11,18,20.00
2010,07,14,11,19,20.10
2010,07,14,11,20,20.10
2010,07,14,11,21,20.20
2010,07,14,11,22,20.30
2010,07,14,11,23,20.30
2010,07,14,11,24,20.20
2010,07,14,11,25,20.20
2010,07,14,11,26,20.20
2010,07,14,11,27,20.20
2010,07,14,11,28,20.10
2010,07,14,11,29,20.10
2010,07,14,11,30,20.20
2010,07,14,11,31,20.20
2010,07,14,11,32,20.20
2010,07,14,11,33,20.20
2010,07,14,11,34,20.20
2010,07,14,11,35,20.30
2010,07,14,11,36,20.20
2010,07,14,11,37,20.20
2010,07,14,11,38,20.20
2010,07,14,11,39,20.20
2010,07,14,11,40,20.20
2010,07,14,11,41,20.20
2010,07,14,11,42,20.20
2010,07,14,11,43,20.20
2010,07,14,11,44,20.20
2010,07,14,11,45,20.30
2010,07,14,11,46,20.40
2010,07,14,11,47,20.40
2010,07,14,11,48,20.40
2010,07,14,11,49,20.40
2010,07,14,11,50,20.30
2010,07,14,11,51,20.30
2010,07,14,11,52,20.20
2010,07,14,11,53,20.30
2010,07,14,11,54,20.30
2010,07,14,11,55,20.30
2010,07,14,11,56,20.20
2010,07,14,11,57,20.10
2010,07,14,11,58,20.10
2010,07,14,11,59,20.00
2010,07,14,12,00,19.90
2010,07,14,12,01,19.80
2010,07,14,12,02,19.60
2010,07,14,12,03,19.50
2010,07,14,12,04,19.50
2010,07,14,12,05,19.30
2010,07,14,12,13,18.70
2010,07,14,12,14,18.60
2010,07,14,12,15,18.50
2010,07,14,12,16,18.50
2010,07,14,12,17,18.50
2010,07,14,12,18,18.40
2010,07,14,12,19,18.30
2010,07,14,12,20,18.20
2010,07,14,12,21,18.20
2010,07,14,12,22,18.20
2010,07,14,12,23,18.30
2010,07,14,12,24,18.30
2010,07,14,12,25,18.30
2010,07,14,12,26,18.20
2010,07,14,12,27,18.20
2010,07,14,12,28,18.10
2010,07,14,12,29,17.90
2010,07,14,12,30,17.80
2010,07,14,12,31,17.70
2010,07,14,12,32,17.60
2010,07,14,12,33,17.50
2010,07,14,12,34,17.50
2010,07,14,12,35,17.40
2010,07,14,12,36,17.40
2010,07,14,12,37,17.60
2010,07,14,12,38,17.70
2010,07,14,12,39,17.80
2010,07,14,12,40,17.80
2010,07,14,12,41,17.90
2010,07,14,12,42,17.90
2010,07,14,12,43,17.90
2010,07,14,12,44,17.80
2010,07,14,12,45,17.80
2010,07,14,12,46,17.80
2010,07,14,12,47,17.80
2010,07,14,12,48,17.80
2010,07,14,12,49,17.90
2010,07,14,12,50,17.90
2010,07,14,12,51,18.00
2010,07,14,12,52,18.00
2010,07,14,12,53,18.10
2010,07,14,12,54,18.10
2010,07,14,12,55,18.20
2010,07,14,12,56,18.20
2010,07,14,12,57,18.30
2010,07,14,12,58,18.30
2010,07,14,12,59,18.30
2010,07,14,13,00,18.40
2010,07,14,13,01,18.30
2010,07,14,13,02,18.20
2010,07,14,13,03,18.10
2010,07,14,13,04,18.10
2010,07,14,13,05,18.20
2010,07,14,13,06,18.20
2010,07,14,13,07,18.20
2010,07,14,13,08,18.20
2010,07,14,13,09,18.10
2010,07,14,13,10,18.10
2010,07,14,13,11,18.20
2010,07,14,13,12,18.20
2010,07,14,13,13,18.30
2010,07,14,13,14,18.50
2010,07,14,13,15,18.50
2010,07,14,13,16,18.40
2010,07,14,13,17,18.50
2010,07,14,13,18,18.60
2010,07,14,13,19,18.60
2010,07,14,13,20,18.70
2010,07,14,13,21,18.70
2010,07,14,13,22,18.70
2010,07,14,13,23,18.70
2010,07,14,13,24,18.70
2010,07,14,13,25,18.70
2010,07,14,13,26,18.60
2010,07,14,13,27,18.50
2010,07,14,13,28,18.40
2010,07,14,13,29,18.50
2010,07,14,13,30,18.50
2010,07,14,13,31,18.60
2010,07,14,13,32,18.50
2010,07,14,13,33,18.40
2010,07,14,13,34,18.40
2010,07,14,13,35,18.40
2010,07,14,13,36,18.30
2010,07,14,13,37,18.30
2010,07,14,13,38,18.30
2010,07,14,13,39,18.40
2010,07,14,13,40,18.50
2010,07,14,13,41,18.60
2010,07,14,13,42,18.60
2010,07,14,13,43,18.60
2010,07,14,13,44,18.60
2010,07,14,13,45,18.60
2010,07,14,13,46,18.60
2010,07,14,13,47,18.60
2010,07,14,13,48,18.60
2010,07,14,13,49,18.60
2010,07,14,13,50,18.70
2010,07,14,13,51,18.80
2010,07,14,13,52,18.80
2010,07,14,13,53,18.70
2010,07,14,13,54,18.70
2010,07,14,13,55,18.70
2010,07,14,13,56,18.60
2010,07,14,13,57,18.60
2010,07,14,13,58,18.70
2010,07,14,13,59,18.70
2010,07,14,14,00,18.70
2010,07,14,14,01,18.60
2010,07,14,14,02,18.70
2010,07,14,14,03,18.80
2010,07,14,14,04,18.80
2010,07,14,14,05,18.80
2010,07,14,14,06,18.80
2010,07,14,14,07,18.80
2010,07,14,14,08,18.70
2010,07,14,14,09,18.70
2010,07,14,14,10,18.70
2010,07,14,14,11,18.80
2010,07,14,14,12,18.90
2010,07,14,14,13,19.00
2010,07,14,14,14,19.10
2010,07,14,14,15,19.10
2010,07,14,14,16,19.10
2010,07,14,14,17,19.10
2010,07,14,14,18,19.20
2010,07,14,14,19,19.20
2010,07,14,14,20,19.20
2010,07,14,14,21,19.20
2010,07,14,14,22,19.20
2010,07,14,14,23,19.30
2010,07,14,14,24,19.20
2010,07,14,14,25,19.20
2010,07,14,14,26,19.30
2010,07,14,14,27,19.30
2010,07,14,14,28,19.40
2010,07,14,14,29,19.40
2010,07,14,14,30,19.40
2010,07,14,14,31,19.40
2010,07,14,14,32,19.40
2010,07,14,14,33,19.40
2010,07,14,14,34,19.40
2010,07,14,14,35,19.40
2010,07,14,14,36,19.40
2010,07,14,14,37,19.50
2010,07,14,14,38,19.50
2010,07,14,14,39,19.50
2010,07,14,14,40,19.60
2010,07,14,14,41,19.80
2010,07,14,14,42,19.90
2010,07,14,14,43,19.90
2010,07,14,14,44,19.90
2010,07,14,14,45,19.80
2010,07,14,14,46,19.90
2010,07,14,14,47,19.90
2010,07,14,14,48,19.90
2010,07,14,14,49,19.90
2010,07,14,14,50,19.80
2010,07,14,14,51,19.70
2010,07,14,14,52,19.70
2010,07,14,14,53,19.70
2010,07,14,14,54,19.70
2010,07,14,14,55,19.70
2010,07,14,14,56,19.70
2010,07,14,14,57,19.70
2010,07,14,14,58,19.70
2010,07,14,14,59,19.60
2010,07,14,15,00,19.50
2010,07,14,15,01,19.40
2010,07,14,15,02,19.40
2010,07,14,15,03,19.50
2010,07,14,15,04,19.60
2010,07,14,15,05,19.60
2010,07,14,15,06,19.70
2010,07,14,15,07,19.70
2010,07,14,15,08,19.70
2010,07,14,15,09,19.70
2010,07,14,15,10,19.80
2010,07,14,15,11,19.80
2010,07,14,15,12,19.80
2010,07,14,15,13,19.80
2010,07,14,15,14,19.90
2010,07,14,15,15,20.00
2010,07,14,15,16,20.10
2010,07,14,15,17,20.20
2010,07,14,15,18,20.30
2010,07,14,15,19,20.30
2010,07,14,15,20,20.20
2010,07,14,15,21,20.20
2010,07,14,15,22,20.30
2010,07,14,15,23,20.40
2010,07,14,15,24,20.50
2010,07,14,15,25,20.50
2010,07,14,15,26,20.50
2010,07,14,15,27,20.40
2010,07,14,15,28,20.40
2010,07,14,15,29,20.30
2010,07,14,15,30,20.30
2010,07,14,15,31,20.30
2010,07,14,15,32,20.30
2010,07,14,15,33,20.30
2010,07,14,15,34,20.30
2010,07,14,15,35,20.20
2010,07,14,15,36,20.30
2010,07,14,15,37,20.30
2010,07,14,15,38,20.30
2010,07,14,15,39,20.30
2010,07,14,15,40,20.20
2010,07,14,15,41,20.20
2010,07,14,15,42,20.20
2010,07,14,15,43,20.20
2010,07,14,15,44,20.30
2010,07,14,15,45,20.30
2010,07,14,15,46,20.40
2010,07,14,15,47,20.50
2010,07,14,15,48,20.60
2010,07,14,15,49,20.60
2010,07,14,15,50,20.50
2010,07,14,15,51,20.50
2010,07,14,15,52,20.40
2010,07,14,15,53,20.40
2010,07,14,15,54,20.40
2010,07,14,15,55,20.40
2010,07,14,15,56,20.40
2010,07,14,15,57,20.40
2010,07,14,15,58,20.40
2010,07,14,15,59,20.50
2010,07,14,16,00,20.50
2010,07,14,16,01,20.40
2010,07,14,16,02,20.40
2010,07,14,16,03,20.40
2010,07,14,16,04,20.40
2010,07,14,16,05,20.40
2010,07,14,16,06,20.30
2010,07,14,16,07,20.40
2010,07,14,16,08,20.40
2010,07,14,16,09,20.40
2010,07,14,16,10,20.50
2010,07,14,16,11,20.60
2010,07,14,16,12,20.60
2010,07,14,16,13,20.50
2010,07,14,16,14,20.40
2010,07,14,16,15,20.40
2010,07,14,16,16,20.40
2010,07,14,16,17,20.50
2010,07,14,16,18,20.60
2010,07,14,16,19,20.60
2010,07,14,16,20,20.60
2010,07,14,16,21,20.60
2010,07,14,16,22,20.60
2010,07,14,16,23,20.60
2010,07,14,16,24,20.50
2010,07,14,16,25,20.50
2010,07,14,16,26,20.50
2010,07,14,16,27,20.40
2010,07,14,16,28,20.40
2010,07,14,16,29,20.40
2010,07,14,16,30,20.40
2010,07,14,16,31,20.40
2010,07,14,16,32,20.50
2010,07,14,16,33,20.60
2010,07,14,16,34,20.60
2010,07,14,16,35,20.50
2010,07,14,16,36,20.50
2010,07,14,16,37,20.40
2010,07,14,16,38,20.40
2010,07,14,16,39,20.40
2010,07,14,16,40,20.40
2010,07,14,16,41,20.40
2010,07,14,16,42,20.40
2010,07,14,16,43,20.30
2010,07,14,16,44,20.30
2010,07,14,16,45,20.30
2010,07,14,16,46,20.30
2010,07,14,16,47,20.30
2010,07,14,16,48,20.30
2010,07,14,16,49,20.30
2010,07,14,16,50,20.20
2010,07,14,16,51,20.20
2010,07,14,16,52,20.10
2010,07,14,16,53,20.00
2010,07,14,16,54,20.00
2010,07,14,16,55,20.00
2010,07,14,16,56,19.90
2010,07,14,16,57,19.90
2010,07,14,16,58,20.00
2010,07,14,16,59,20.10
2010,07,14,17,00,20.10
2010,07,14,17,01,20.20
2010,07,14,17,02,20.20
2010,07,14,17,03,20.20
2010,07,14,17,04,20.20
2010,07,14,17,05,20.20
2010,07,14,17,06,20.20
2010,07,14,17,07,20.20
2010,07,14,17,08,20.30
2010,07,14,17,09,20.30
2010,07,14,17,10,20.30
2010,07,14,17,11,20.30
2010,07,14,17,12,20.20
2010,07,14,17,13,20.30
2010,07,14,17,14,20.30
2010,07,14,17,15,20.30
2010,07,14,17,16,20.30
2010,07,14,17,17,20.30
2010,07,14,17,18,20.30
2010,07,14,17,19,20.20
2010,07,14,17,20,20.20
2010,07,14,17,21,20.20
2010,07,14,17,22,20.20
2010,07,14,17,23,20.30
2010,07,14,17,24,20.40
2010,07,14,17,25,20.40
2010,07,14,17,26,20.40
2010,07,14,17,27,20.40
2010,07,14,17,28,20.30